Probability
0 0 0 0 0 0 0 0 0 0 0 0 0 0 0 0 3 3 3 35 42 39 32 35 35 35 35 32 39 32 29 39 39 29 32 32 32 45 45 42 42 42 52
0 0 0 0 0 0 0 0 0 0 0 0 0 0 0 3 0 0 3 0 19 26 42 32 39 45 39 39 32 29 32 32 35 35 35 29 35 35 45 48 39 35 39
0 0 0 0 0 0 0 0 0 0 0 0 0 0 0 0 0 0 0 0 0 3 23 39 35 48 42 42 26 26 29 39 32 32 32 42 45 35 39 42 39 32 35
0 0 0 0 0 0 0 0 0 0 0 0 0 0 0 0 0 0 0 0 0 0 13 39 32 32 35 35 26 29 29 35 32 29 29 42 42 39 39 35 32 32 39
0 0 0 0 0 0 0 0 0 0 0 0 0 0 0 0 0 0 0 0 0 0 0 6 16 23 32 35 39 29 29 29 29 32 32 39 39 32 23 35 35 35 42
0 0 0 0 0 0 0 0 0 0 0 0 0 0 0 0 0 0 0 0 0 0 0 0 0 10 16 23 29 26 26 32 26 35 35 32 32 32 32 26 35 35 35
0 0 0 0 0 0 0 0 0 0 0 0 0 0 0 0 0 0 0 0 0 0 0 0 0 0 0 10 10 23 23 23 26 35 29 42 45 42 45 32 26 26 26
0 0 0 0 0 0 0 0 0 0 0 0 0 0 0 0 0 0 0 0 0 0 0 0 0 0 0 0 0 6 10 16 16 19 19 32 42 45 42 48 39 35 35
0 0 0 0 0 0 0 0 0 0 0 0 0 0 0 0 0 0 0 0 0 0 0 0 0 0 0 0 0 0 0 6 19 16 19 26 26 32 32 35 32 29 39
0 0 0 0 0 0 0 0 0 0 0 0 0 0 0 0 0 0 0 0 0 0 0 0 0 0 0 0 0 0 0 6 6 13 6 16 13 13 23 26 29 35 32
0 0 0 0 0 0 0 0 0 0 0 0 0 0 0 0 0 0 0 0 0 0 0 0 0 0 0 0 0 0 0 0 3 3 3 0 10 10 6 13 19 26 19
0 0 0 0 0 0 0 0 0 0 0 0 0 0 0 0 0 0 0 0 0 0 0 0 0 0 0 0 0 0 0 0 3 3 3 3 6 6 3 6 6 13 10
0 0 0 0 0 0 0 0 0 0 0 0 0 0 0 0 0 0 0 0 0 0 0 0 0 0 0 0 0 0 0 0 0 0 3 3 3 3 6 3 6 3 3
0 0 0 0 0 0 0 0 0 0 0 0 0 0 0 0 0 0 0 0 0 0 0 0 0 0 0 0 0 0 0 0 0 0 3 3 3 3 3 3 6 3 3
0 0 0 0 0 0 0 0 0 0 0 0 0 0 0 0 0 0 0 0 0 0 0 0 0 0 0 0 0 0 0 0 0 0 0 0 0 0 0 0 0 0 3
0 0 0 0 0 0 0 0 0 0 0 0 0 0 0 0 0 0 0 0 0 0 0 0 0 0 0 0 0 0 0 0 0 0 0 0 0 0 0 0 0 0 0
0 0 0 0 0 0 0 0 0 0 0 0 0 0 0 0 0 0 0 0 0 0 0 0 0 0 0 0 0 0 0 0 0 0 0 0 0 0 0 0 0 0 0
0 0 0 0 0 0 0 0 0 0 0 0 0 0 0 0 0 0 0 0 0 0 0 0 0 0 0 0 0 0 0 0 0 0 0 0 0 0 0 0 0 0 0
0 0 0 0 0 0 0 0 0 0 0 0 0 0 0 0 0 0 0 0 0 0 0 0 0 0 0 0 0 0 0 0 0 0 0 0 0 0 0 0 0 0 0
0 0 0 0 0 0 0 0 0 0 0 0 0 0 0 0 0 0 0 0 0 0 0 0 0 0 0 0 0 0 0 0 0 0 0 0 0 0 0 0 0 0 0
0 0 0 0 0 0 0 0 0 0 0 0 0 0 0 0 0 0 0 0 0 0 0 0 0 0 0 0 0 0 0 0 0 0 0 0 0 0 0 0 0 0 0
0 0 0 0 0 0 0 0 0 0 0 0 0 0 0 0 0 0 0 0 0 0 0 0 0 0 0 0 0 0 0 0 0 0 0 0 0 0 0 0 0 0 0
0 0 0 0 0 0 0 0 0 0 0 0 0 0 0 0 0 0 0 0 0 0 0 0 0 0 0 0 0 0 0 0 0 0 0 0 0 0 0 0 0 0 0
0 0 0 0 0 0 0 0 0 0 0 0 0 0 0 0 0 0 0 0 0 0 0 0 0 0 0 0 0 0 0 0 0 0 0 0 0 0 0 0 0 0 0
0 0 0 0 0 0 0 0 0 0 0 0 0 0 0 0 0 0 0 0 0 0 0 0 0 0 0 0 0 0 0 0 0 0 0 0 0 0 0 0 0 0 0
0 0 0 0 0 0 0 0 0 0 0 0 0 0 0 0 0 0 0 0 0 0 0 0 0 0 0 0 0 0 0 0 0 0 0 0 0 0 0 0 0 0 0
Height
5872 5869 5866 5862 5859 5857 5854 5853 5851 5850 5850 5850 5851 5852 5853 5854 5855 5857 5858 5860 5861 5863 5864 5866 5867 5869 5871 5873 5875 5876 5878 5879 5880 5881 5881 5880 5881 5883 5886 5889 5891 5892 5894
5872 5869 5867 5863 5860 5858 5855 5853 5852 5851 5850 5851 5851 5852 5853 5854 5855 5857 5858 5859 5861 5862 5863 5865 5867 5869 5870 5872 5874 5876 5877 5878 5879 5879 5878 5876 5876 5880 5884 5887 5889 5891 5892
5873 5870 5868 5865 5862 5859 5857 5855 5853 5852 5851 5851 5851 5852 5853 5854 5855 5857 5858 5859 5860 5862 5863 5865 5866 5868 5869 5871 5873 5874 5876 5877 5878 5878 5876 5876 5876 5879 5882 5885 5886 5888 5889
5874 5872 5869 5866 5864 5861 5859 5857 5855 5854 5853 5853 5852 5853 5854 5855 5856 5857 5858 5859 5860 5861 5863 5864 5866 5867 5869 5870 5872 5873 5874 5876 5877 5877 5877 5877 5878 5880 5881 5882 5883 5883 5885
5876 5873 5871 5868 5866 5863 5861 5859 5857 5856 5855 5854 5854 5854 5855 5856 5857 5858 5859 5860 5861 5862 5863 5864 5865 5867 5868 5869 5871 5872 5873 5874 5875 5876 5877 5877 5878 5879 5879 5879 5878 5878 5880
5877 5875 5873 5870 5868 5865 5863 5861 5859 5858 5857 5857 5856 5856 5857 5857 5857 5858 5859 5860 5861 5862 5863 5864 5865 5866 5867 5868 5869 5870 5872 5873 5874 5875 5876 5876 5877 5877 5877 5877 5875 5875 5877
5879 5877 5875 5872 5870 5868 5866 5864 5862 5861 5860 5859 5859 5858 5858 5858 5859 5859 5860 5861 5862 5863 5864 5864 5865 5866 5867 5868 5869 5869 5870 5870 5871 5873 5874 5875 5876 5876 5876 5876 5874 5873 5875
5881 5879 5877 5875 5872 5870 5868 5867 5865 5863 5863 5862 5861 5861 5860 5861 5860 5861 5862 5863 5863 5864 5864 5865 5866 5866 5867 5868 5868 5869 5868 5868 5869 5871 5873 5874 5875 5875 5875 5876 5875 5874 5875
5883 5881 5879 5877 5875 5873 5871 5869 5867 5866 5865 5864 5863 5863 5862 5862 5863 5863 5863 5864 5864 5865 5865 5866 5866 5866 5867 5868 5868 5868 5867 5868 5869 5870 5872 5873 5873 5874 5874 5875 5875 5875 5876
5885 5883 5881 5879 5877 5875 5873 5871 5869 5868 5866 5866 5865 5864 5864 5864 5864 5865 5865 5865 5865 5866 5866 5866 5867 5867 5867 5868 5868 5868 5868 5868 5869 5869 5870 5871 5872 5873 5873 5874 5874 5875 5876
5886 5885 5883 5881 5879 5877 5875 5873 5871 5869 5868 5867 5866 5866 5865 5865 5866 5866 5866 5866 5866 5867 5867 5867 5867 5867 5867 5867 5867 5868 5867 5868 5868 5869 5869 5870 5870 5871 5872 5872 5873 5873 5874
5888 5886 5884 5883 5881 5879 5877 5875 5873 5871 5869 5868 5867 5867 5866 5866 5867 5867 5867 5867 5867 5867 5867 5867 5867 5867 5867 5867 5867 5867 5867 5867 5867 5868 5868 5869 5869 5869 5870 5870 5871 5871 5872
5889 5887 5886 5884 5882 5880 5878 5876 5874 5872 5870 5869 5868 5868 5867 5868 5868 5868 5868 5868 5868 5868 5867 5868 5867 5867 5867 5867 5867 5867 5867 5866 5866 5867 5867 5867 5867 5867 5867 5868 5868 5868 5869
5889 5888 5887 5885 5884 5882 5880 5878 5875 5873 5872 5870 5869 5869 5869 5869 5869 5869 5869 5868 5868 5868 5868 5867 5867 5867 5867 5867 5866 5866 5866 5865 5865 5865 5865 5865 5865 5865 5865 5865 5865 5865 5865
5890 5889 5887 5886 5885 5883 5881 5879 5877 5875 5873 5872 5871 5870 5870 5870 5869 5869 5868 5868 5869 5868 5868 5867 5867 5866 5866 5865 5865 5865 5864 5864 5863 5863 5862 5862 5862 5862 5862 5861 5861 5862 5862
5890 5889 5888 5886 5885 5883 5882 5880 5878 5876 5875 5874 5872 5871 5870 5870 5869 5868 5868 5868 5867 5867 5866 5866 5865 5865 5864 5864 5863 5863 5862 5861 5861 5860 5859 5859 5859 5858 5858 5858 5857 5857 5857
5889 5888 5887 5886 5885 5884 5882 5881 5879 5877 5876 5875 5873 5872 5870 5869 5868 5867 5867 5866 5865 5865 5864 5864 5863 5863 5862 5861 5861 5860 5859 5858 5857 5857 5856 5855 5855 5854 5854 5853 5853 5852 5852
5888 5887 5886 5885 5884 5883 5882 5880 5879 5877 5876 5874 5873 5871 5870 5868 5867 5866 5865 5863 5862 5862 5861 5861 5860 5859 5859 5858 5857 5856 5855 5854 5853 5853 5852 5851 5850 5850 5849 5848 5848 5847 5846
5887 5886 5885 5884 5883 5882 5881 5879 5878 5877 5875 5873 5872 5870 5868 5866 5865 5863 5862 5861 5859 5858 5858 5857 5856 5855 5854 5854 5853 5852 5851 5850 5849 5848 5847 5846 5845 5844 5843 5842 5841 5841 5840
5885 5884 5883 5883 5882 5880 5879 5878 5877 5875 5873 5872 5870 5868 5866 5864 5862 5860 5859 5858 5856 5855 5854 5853 5852 5851 5850 5848 5848 5847 5846 5844 5843 5842 5841 5840 5839 5837 5836 5835 5835 5833 5832
5882 5882 5881 5880 5879 5878 5877 5875 5874 5873 5871 5869 5867 5865 5863 5861 5859 5857 5855 5854 5852 5851 5850 5848 5847 5846 5844 5843 5842 5841 5840 5838 5837 5836 5834 5833 5831 5830 5829 5827 5826 5825 5824
5879 5879 5878 5877 5876 5875 5874 5872 5871 5869 5868 5866 5864 5862 5859 5857 5855 5853 5851 5850 5848 5846 5845 5843 5842 5840 5838 5837 5836 5834 5833 5832 5830 5829 5827 5825 5824 5822 5820 5818 5817 5815 5814
5876 5875 5874 5873 5872 5871 5870 5869 5867 5866 5864 5862 5860 5858 5855 5853 5851 5848 5846 5844 5842 5840 5839 5837 5835 5834 5832 5830 5829 5827 5825 5824 5822 5820 5819 5817 5815 5813 5811 5809 5806 5804 5803
5872 5871 5870 5869 5868 5867 5866 5864 5863 5861 5860 5858 5856 5853 5851 5848 5846 5843 5841 5838 5836 5834 5832 5830 5828 5826 5824 5823 5821 5819 5817 5815 5813 5810 5809 5807 5805 5803 5800 5797 5795 5792 5790
5867 5866 5865 5864 5863 5862 5861 5859 5858 5856 5855 5853 5850 5848 5845 5843 5840 5837 5835 5832 5830 5827 5824 5822 5820 5818 5815 5813 5811 5809 5807 5805 5803 5800 5797 5795 5793 5791 5789 5785 5781 5778 5775
5861 5861 5860 5859 5858 5857 5855 5854 5852 5851 5849 5847 5844 5842 5839 5836 5834 5831 5828 5825 5822 5819 5817 5814 5811 5808 5805 5803 5800 5798 5796 5793 5791 5789 5785 5783 5780 5777 5776 5773 5768 5763 5759
Wind_Speed
13 14 14 14 14 12 11 9 7 4 3 2 3 4 5 6 7 7 7 8 8 9 10 11 11 11 11 11 11 10 10 10 10 10 11 12 14 14 13 13 13 12 13
14 15 15 15 14 13 12 10 8 6 5 3 3 4 5 5 5 6 6 7 7 8 9 10 10 10 11 11 10 10 10 10 10 9 10 11 12 13 14 13 14 14 13
15 15 15 16 15 14 13 11 10 8 6 5 5 5 5 5 5 6 6 6 6 7 8 9 9 10 10 10 10 9 9 9 9 9 9 9 11 13 13 13 14 15 15
15 15 16 16 16 16 15 13 11 10 8 7 7 6 6 6 6 6 6 6 6 7 7 8 8 8 9 10 10 9 8 8 8 9 9 9 10 11 12 13 14 16 16
15 16 16 16 16 16 15 14 13 12 11 9 8 8 7 7 7 7 6 6 7 7 7 7 7 7 7 8 8 8 7 8 8 8 8 8 9 10 11 12 13 14 17
14 15 16 16 16 16 15 14 14 13 12 11 10 9 8 7 7 7 7 7 7 6 6 6 6 6 6 6 6 6 7 7 8 8 8 7 7 8 9 11 12 13 16
14 15 15 16 16 16 15 14 14 14 13 12 11 10 9 8 7 7 7 7 6 5 5 6 5 5 5 5 5 5 6 7 8 8 8 7 7 7 7 8 10 12 15
14 14 15 15 15 15 15 14 14 13 13 12 11 10 9 8 8 7 7 7 6 5 4 4 4 4 4 4 4 4 5 6 6 7 7 7 7 7 6 6 8 11 14
13 14 14 15 15 15 15 14 13 13 12 12 11 11 10 9 8 8 7 7 6 5 4 4 4 3 3 3 3 3 4 4 5 6 7 7 7 6 7 7 8 10 12
12 13 14 14 14 15 14 13 13 12 12 11 11 10 10 10 9 8 8 7 6 5 5 4 4 3 3 2 2 2 3 4 6 6 6 7 7 7 8 8 9 10 12
10 11 12 13 13 14 14 13 13 12 11 10 9 9 8 8 8 8 7 7 6 5 5 4 3 3 2 2 1 1 2 3 5 6 6 7 7 8 8 9 10 11 13
8 10 11 12 13 13 13 13 12 12 11 10 9 8 8 7 7 7 6 6 5 4 4 4 3 3 2 2 1 1 2 3 4 4 6 7 8 9 9 10 11 12 13
7 8 9 10 11 12 13 13 12 12 11 10 9 8 8 7 6 6 5 4 4 3 3 3 2 2 2 1 1 2 2 3 4 5 6 7 9 10 10 11 12 14 15
6 7 8 9 9 11 11 12 12 11 10 10 9 8 7 7 6 5 4 4 4 3 2 2 2 2 3 2 3 3 4 4 6 7 7 9 10 11 12 13 13 15 16
5 6 7 8 8 9 10 11 11 10 9 8 8 7 7 6 5 4 3 4 3 3 3 4 4 5 5 5 6 6 6 7 7 8 9 10 10 12 13 14 15 16 18
3 4 5 6 7 8 8 9 9 9 8 8 8 8 7 6 5 5 4 4 4 5 5 6 6 6 7 7 8 8 8 9 10 10 11 12 12 13 14 15 17 18 19
3 3 4 5 6 6 6 7 7 7 7 7 7 7 7 7 7 6 6 6 7 7 7 8 8 9 9 10 10 11 11 12 12 13 13 14 15 16 16 17 18 20 21
3 4 4 5 6 6 6 7 7 7 7 7 8 8 8 8 8 8 8 8 8 9 10 10 10 11 12 12 12 13 14 15 15 16 16 17 17 18 19 20 21 22 23
5 5 5 6 6 7 7 7 8 8 8 8 9 9 10 10 10 10 10 10 10 11 12 12 13 14 14 15 15 16 16 17 18 18 19 19 20 21 21 22 23 24 25
7 7 7 7 8 8 8 8 8 9 10 10 11 11 12 12 12 12 12 13 13 13 14 14 15 15 16 17 18 18 19 19 20 21 22 23 23 24 24 25 26 27 27
9 9 9 9 10 10 10 10 11 11 11 12 12 13 14 14 14 14 15 15 16 16 17 17 17 18 19 20 20 21 22 22 23 24 24 25 26 27 27 28 29 29 30
11 11 12 12 12 12 12 12 13 13 14 14 14 15 15 16 16 17 17 18 19 19 20 20 21 21 21 22 23 24 24 25 26 27 27 28 29 30 31 32 33 33 34
13 13 14 14 14 14 14 14 14 15 15 15 16 17 18 18 19 20 21 21 22 22 23 23 23 24 24 25 26 27 27 28 29 30 30 31 32 33 34 35 36 37 38
16 16 16 16 16 16 16 17 17 17 17 18 19 20 21 21 22 23 23 24 24 25 25 26 26 26 27 28 29 29 30 31 32 33 33 34 35 37 38 39 40 42 43
18 17 17 17 18 18 19 19 19 20 20 21 22 22 23 24 24 25 25 26 26 27 27 28 29 30 30 31 32 32 33 34 35 36 37 38 39 40 41 43 44 46 48
19 19 19 20 20 21 21 21 21 22 23 23 24 25 25 26 27 28 29 29 30 30 30 32 32 33 33 34 35 36 37 38 38 39 40 41 42 43 44 46 48 51 53
Wind_Direction
24 23 23 22 22 24 28 32 34 44 79 125 155 177 182 179 180 183 186 190 197 201 202 204 205 205 206 205 204 205 209 213 217 220 224 226 225 223 218 217 216 215 213
29 27 27 26 26 30 34 37 43 57 77 96 117 143 158 163 166 169 175 180 189 194 198 201 201 203 205 204 204 207 211 216 220 222 224 224 220 217 213 216 218 218 217
33 31 31 31 31 34 38 40 48 60 73 86 103 123 136 147 154 156 159 166 176 185 190 194 195 197 201 202 203 205 212 219 224 222 218 215 213 215 216 221 223 223 221
34 33 33 34 35 38 41 46 51 61 71 81 94 108 120 133 143 147 151 159 164 169 179 187 190 193 197 201 204 208 212 214 220 223 219 213 213 219 226 231 232 228 226
35 35 35 36 39 41 44 49 55 64 70 77 86 96 108 121 129 136 140 146 153 159 168 174 180 187 194 199 204 211 216 219 220 221 224 224 222 228 232 237 236 229 226
37 38 37 38 40 43 47 53 58 66 69 73 79 86 96 105 117 125 129 132 139 148 158 163 167 177 186 196 203 211 219 224 220 221 223 226 226 228 233 240 236 229 225
40 40 39 40 42 45 49 55 60 65 68 71 75 79 85 95 105 117 126 126 128 134 145 157 165 173 177 186 199 213 222 228 226 224 223 224 226 229 229 234 228 225 224
40 40 41 42 43 46 50 55 60 65 67 68 71 74 77 84 93 106 116 119 116 116 126 143 153 162 174 186 200 210 220 222 220 216 221 224 226 229 227 228 221 217 218
41 41 42 43 44 47 49 52 56 60 62 63 66 69 72 78 83 93 99 104 107 106 109 117 130 142 153 171 195 207 200 204 210 213 223 228 232 237 235 235 228 224 224
41 42 42 42 42 45 47 50 53 56 58 60 62 67 72 76 80 84 90 93 97 95 102 109 110 111 131 153 172 209 207 206 209 218 227 231 233 234 236 238 234 230 228
40 40 40 40 41 42 45 47 50 53 54 56 60 66 72 75 77 78 81 85 87 87 88 93 98 90 94 118 154 196 214 225 215 223 232 235 240 240 241 244 242 239 234
40 39 39 38 39 39 40 41 44 47 49 53 57 63 70 73 75 76 78 77 74 73 73 74 79 73 71 74 79 268 265 258 240 239 244 250 253 255 253 251 249 251 247
38 37 35 34 34 35 36 36 38 42 46 51 55 60 65 67 70 72 73 71 66 63 59 55 48 50 42 32 3 329 300 282 271 270 260 263 266 265 264 263 258 255 253
32 33 32 31 31 32 33 33 35 38 44 48 53 58 62 64 63 67 65 49 46 44 28 15 9 4 0 344 330 320 311 304 297 287 281 276 273 272 267 265 262 261 259
27 28 29 28 25 26 28 29 33 34 37 43 48 51 51 44 38 34 26 18 11 1 343 332 324 323 325 325 317 311 305 302 301 296 291 288 284 278 275 272 269 267 266
14 14 18 20 18 20 23 29 29 30 34 38 37 32 27 19 15 7 355 346 337 328 320 315 312 310 311 311 310 307 303 300 300 299 294 289 287 286 282 279 277 275 274
335 347 355 0 2 5 8 9 9 10 12 13 11 9 7 2 356 349 337 329 323 316 311 306 302 303 303 302 301 299 298 298 296 295 293 290 288 287 285 282 281 280 277
301 310 324 332 338 345 348 349 348 349 349 351 352 352 351 346 341 336 330 323 315 310 308 306 301 298 298 298 298 298 298 296 294 293 292 290 289 288 287 285 283 282 280
290 296 304 314 321 327 332 334 332 333 333 333 332 330 328 326 324 322 320 316 313 309 306 304 302 298 295 295 295 295 295 295 294 293 292 291 289 287 287 287 285 283 282
281 285 291 298 305 311 314 317 317 318 321 320 319 319 318 317 315 314 312 310 308 306 305 303 301 298 295 294 292 292 292 292 293 292 291 290 289 289 288 287 286 285 283
276 280 283 288 294 298 301 303 307 309 312 313 313 314 314 313 312 311 309 307 305 302 300 299 297 295 293 292 292 292 292 292 292 292 291 290 290 289 289 288 287 286 284
273 277 279 283 288 291 294 297 301 303 306 307 308 309 309 308 308 308 306 304 302 301 299 297 297 296 294 292 291 291 291 290 290 290 290 290 289 288 288 287 286 285 284
272 275 278 281 285 287 291 294 296 298 300 302 304 305 306 306 305 305 304 302 300 299 298 297 296 295 294 292 291 290 290 289 289 289 289 289 289 288 287 287 285 285 284
272 274 277 280 283 286 288 291 294 294 295 297 300 302 304 304 304 304 304 303 301 299 299 298 297 295 293 291 290 289 288 288 288 289 289 289 289 288 288 287 286 286 286
271 273 275 279 282 284 287 290 292 293 294 294 297 299 301 302 302 303 303 302 301 300 298 297 296 294 292 291 289 289 288 288 288 288 289 289 289 288 289 288 288 287 287
271 273 276 280 282 284 286 289 291 292 293 294 295 297 298 300 301 302 301 301 300 298 297 297 296 294 293 292 291 290 290 289 289 289 289 289 289 289 289 289 289 288 288